This demonstration page uses our WeatherBlox Daily Observations layout. Learn more.

Left ArrowRight Arrow

39.01783, -85.05884

Hourly Observations for July 8, 2021

Temp ( °F °C ) Dew Point ( °F °C ) Humidity (%) Winds ( mph kmh ) Pressure ( in mb ) Visibility ( mi km ) Precip ( " mm )
12:52 am 00:52 Mostly Cloudy 73 22.8 67 19.4 81 81 SSW 9 15 29.91 1013 10 16 0.00 0.00
1:52 am 01:52 Mostly Cloudy 72 22.2 67 19.4 84 84 S 10 17 29.89 1012 10 16 0.00 0.00
2:22 am 02:22 Cloudy 72 22.2 67 19.4 84 84 SSW 9 15 29.89 1012 10 16 0.00 0.00
2:52 am 02:52 Mostly Cloudy 72 22.2 67 19.4 84 84 SSW 9 15 29.88 1012 10 16 0.00 0.00
3:02 am 03:02 Mostly Cloudy 71 21.7 67 19.4 87 87 SSW 9 15 29.89 1012 10 16 0.00 0.00
3:52 am 03:52 Mostly Clear 71 21.7 67 19.4 87 87 SSW 9 15 29.87 1012 10 16 0.00 0.00
4:52 am 04:52 Mostly Clear 70 21.1 67 19.4 90 90 SSW 8 13 29.87 1011 10 16 0.00 0.00
5:45 am 05:45 Mostly Cloudy 70 21.1 67 19.4 90 90 SSW 8 13 29.88 1012 10 16 0.00 0.00
5:52 am 05:52 Mostly Cloudy 70 21.1 67 19.4 90 90 SSW 7 11 29.88 1012 10 16 0.00 0.00
5:58 am 05:58 Cloudy 71 21.7 67 19.4 87 87 SSW 8 13 29.88 1012 10 16 0.00 0.00
6:15 am 06:15 Cloudy 71 21.7 67 19.4 87 87 SSW 8 13 29.87 1012 10 16 0.00 0.00
6:52 am 06:52 Cloudy 71 21.7 68 20 90 90 SSW 5 7 29.88 1012 10 16 0.00 0.00
7:52 am 07:52 Cloudy 72 22.2 68 20 87 87 SW 6 9 29.90 1012 10 16 0.00 0.00
8:52 am 08:52 Cloudy 73 22.8 68 20 84 84 SW 5 7 29.91 1013 7 11 0.00 0.00
9:42 am 09:42 Cloudy 74 23.3 68 20 82 82 W 6 9 29.91 1013 9 14 0.00 0.00
9:52 am 09:52 Cloudy 74 23.3 68 20 82 82 W 8 13 29.91 1013 10 16 0.00 0.00
10:52 am 10:52 Cloudy 75 23.9 69 20.6 82 82 SW 8 13 29.91 1013 10 16 0.00 0.00
11:52 am 11:52 Cloudy 77 25 70 21.1 79 79 S 8 13 29.90 1013 8 13 0.00 0.00
12:26 pm 12:26 Cloudy 77 25 70 21.1 79 79 S 8 13 29.90 1013 8 13 0.00 0.00
12:52 pm 12:52 Cloudy 78 25.6 71 21.7 79 79 S 12 19 29.90 1013 8 13 0.00 0.00
1:29 pm 13:29 Mostly Cloudy 81 27.2 71 21.7 72 72 S 9 15 29.88 1012 8 13 0.00 0.00
1:52 pm 13:52 Cloudy 79 26.1 70 21.1 74 74 SSW 10 17 29.88 1012 8 13 0.00 0.00
2:52 pm 14:52 Cloudy 79 26.1 70 21.1 74 74 SSW 3 6 29.88 1012 7 11 0.00 0.00
3:52 pm 15:52 Cloudy 81 27.2 70 21.1 69 69 S 8 13 29.87 1012 8 13 0.00 0.00
4:52 pm 16:52 Cloudy 83 28.3 70 21.1 65 65 W 5 7 29.85 1011 9 14 0.00 0.00
5:52 pm 17:52 Cloudy 81 27.2 70 21.1 69 69 SW 7 11 29.86 1011 10 16 0.00 0.00
6:07 pm 18:07 Cloudy with Nearby Thunderstorms 81 27.2 71 21.7 72 72 SSW 6 9 29.84 1010 9 14 0.00 0.00
6:27 pm 18:27 Cloudy 80 26.7 71 21.7 74 74 WSW 5 7 29.83 1010 9 14 0.00 0.00
6:52 pm 18:52 Cloudy 79 26.1 72 22.2 79 79 SW 12 19 29.85 1011 8 13 0.00 0.00
7:52 pm 19:52 Cloudy 74 23.3 66 18.9 76 76 WSW 6 9 29.85 1011 10 16 0.00 0.00
8:52 pm 20:52 Cloudy 72 22.2 66 18.9 82 82 SSW 7 11 29.87 1011 10 16 0.00 0.00
9:52 pm 21:52 Mostly Cloudy 70 21.1 66 18.9 87 87 SW 6 9 29.88 1012 10 16 0.00 0.00
10:52 pm 22:52 Mostly Cloudy 70 21.1 66 18.9 87 87 W 8 13 29.89 1012 10 16 0.00 0.00
11:52 pm 23:52 Mostly Cloudy 70 21.1 66 18.9 87 87 WSW 3 6 29.89 1012 10 16 0.00 0.00

Powered by AerisWeather